TimePDT,TemperatureF,Dew PointF,Humidity,Sea Level PressureIn,VisibilityMPH,Wind Direction,Wind SpeedMPH,Gust SpeedMPH,PrecipitationIn,Events,Conditions,WindDirDegrees,DateUTC
2:55 AM,57.9,37.0,46,30.25,10.0,SW,6.9,-,N/A,,Clear,230,2012-10-01 09:55:00
3:55 AM,57.0,37.0,47,30.24,10.0,West,3.5,-,N/A,,Clear,260,2012-10-01 10:55:00
4:55 AM,55.9,36.0,47,30.24,7.0,West,4.6,-,N/A,,Clear,280,2012-10-01 11:55:00
5:55 AM,55.0,37.0,51,30.23,7.0,West,6.9,-,N/A,,Clear,280,2012-10-01 12:55:00
6:55 AM,53.1,37.0,55,30.24,6.0,NW,4.6,-,N/A,,Haze,320,2012-10-01 13:55:00
7:55 AM,55.0,37.0,51,30.24,5.0,Calm,Calm,-,N/A,,Haze,0,2012-10-01 14:55:00
8:29 AM,57.2,37.4,48,30.24,2.0,Calm,Calm,-,N/A,,Haze,0,2012-10-01 15:29:00
8:55 AM,57.9,37.9,47,30.22,2.0,Calm,Calm,-,N/A,,Haze,0,2012-10-01 15:55:00
9:55 AM,61.0,41.0,48,30.21,2.0,Calm,Calm,-,N/A,,Haze,0,2012-10-01 16:55:00
10:55 AM,63.0,41.0,45,30.18,2.5,Calm,Calm,-,N/A,,Haze,0,2012-10-01 17:55:00
11:55 AM,66.9,39.0,36,30.15,2.5,East,3.5,-,N/A,,Haze,90,2012-10-01 18:55:00
12:17 PM,68.0,39.2,35,30.15,3.0,ESE,4.6,-,N/A,,Haze,120,2012-10-01 19:17:00
12:55 PM,70.0,37.0,30,30.12,5.0,ESE,11.5,-,N/A,,Haze,120,2012-10-01 19:55:00
1:55 PM,72.0,37.9,29,30.08,5.0,ESE,9.2,-,N/A,,Haze,110,2012-10-01 20:55:00
2:55 PM,73.9,37.9,27,30.04,5.0,ESE,10.4,-,N/A,,Haze,120,2012-10-01 21:55:00
3:55 PM,75.0,39.9,28,30.01,5.0,East,9.2,-,N/A,,Haze,100,2012-10-01 22:55:00
4:55 PM,75.9,42.1,30,29.98,5.0,ESE,5.8,-,N/A,,Haze,110,2012-10-01 23:55:00
5:55 PM,75.0,43.0,32,29.97,5.0,East,6.9,-,N/A,,Haze,90,2012-10-02 00:55:00
6:55 PM,73.0,45.0,37,29.96,6.0,Variable,3.5,-,N/A,,Haze,0,2012-10-02 01:55:00
7:55 PM,73.0,48.9,42,29.95,10.0,WNW,6.9,-,N/A,,Clear,300,2012-10-02 02:55:00
8:55 PM,72.0,48.9,44,29.94,10.0,NW,10.4,-,N/A,,Clear,320,2012-10-02 03:55:00
9:55 PM,70.0,48.9,47,29.93,10.0,NW,9.2,-,N/A,,Clear,310,2012-10-02 04:55:00
10:55 PM,68.0,48.9,50,29.93,10.0,NNW,5.8,-,N/A,,Clear,340,2012-10-02 05:55:00
11:55 PM,66.9,48.0,51,29.92,10.0,North,6.9,-,N/A,,Clear,350,2012-10-02 06:55:00